College Station, AR

7:59 AM CST on December 11, 2016 (GMT -0600)
Adams

Weather History for KLIT - September, 2013

Change the Weather History Date:

Wednesday, September 11, 2013

  Actual Average Record
Temperature  
Mean Temperature 85 °F 76 °F  
Max Temperature 96 °F 86 °F 96 °F (2002)
Min Temperature 73 °F 66 °F 51 °F (1976)
Degree Days  
Heating Degree Days 0 0  
Month to date heating degree days 0 0  
Since 1 July heating degree days 0 0  
Cooling Degree Days 20 11  
Month to date cooling degree days 204 143  
Year to date cooling degree days 1910 1920  
Growing Degree Days 34 (Base 50)    
Moisture  
Dew Point 70 °F    
Average Humidity 65    
Maximum Humidity 87    
Minimum Humidity 42    
Precipitation  
Precipitation 0.02 in 0.11 in 2.08 in (2003)
Month to date precipitation 0.02 1.20  
Year to date precipitation 34.62 32.72  
Snow  
Snow 0.00 in 0.00 in - ()
Month to date snowfall 0.0 0.0  
Since 1 July snowfall 0.0 0.0  
Since 1 September snowfall 0.0 0.0  
Snow Depth 0.00 in    
Sea Level Pressure  
Sea Level Pressure 30.09 in    
Wind  
Wind Speed 3 mph (East)    
Max Wind Speed 16 mph    
Max Gust Speed 21 mph    
Visibility 9 miles    
Events Rain , Thunderstorm    
T = Trace of Precipitation, MM = Missing Value Source: NWS Daily Summary

Daily Weather History Graph

Daily Weather History Graph

Search for Another Location

Airport or City:

Trip Planner

Search our weather history database for the weather conditions in past years. The results will help you decide how hot, cold, wet, or windy it might be!

Date:

Astronomy

Sep. 11, 2013 Rise Set
Actual Time 6:49 AM CDT 7:21 PM CDT
Civil Twilight 6:23 AM CDT 7:46 PM CDT
Nautical Twilight 5:54 AM CDT 8:16 PM CDT
Astronomical Twilight 5:23 AM CDT 8:46 PM CDT
Moon 1:02 PM CDT 11:33 PM CDT
Length of Visible Light 13h 22m
Length of Day
12h 31m
Waxing Crescent, 39% of the Moon is Illuminated
Sep 11
Waxing Crescent
Sep 12
First Quarter
Sep 19
Full
Sep 26
Last Quarter
Oct 4
New

Hourly Weather History & Observations

Time (CDT) Temp. Heat Index Dew Point Humidity Pressure Visibility Wind Dir Wind Speed Gust Speed Precip Events Conditions
12:53 AM 78.1 °F - 69.1 °F 74% 30.10 in 10.0 mi Calm Calm - N/A   Partly Cloudy
1:53 AM 77.0 °F - 68.0 °F 74% 30.10 in 10.0 mi Calm Calm - N/A   Partly Cloudy
2:53 AM 75.9 °F - 70.0 °F 82% 30.10 in 10.0 mi Calm Calm - N/A   Clear
3:53 AM 75.0 °F - 70.0 °F 84% 30.10 in 10.0 mi Calm Calm - N/A   Partly Cloudy
4:53 AM 75.0 °F - 69.1 °F 82% 30.11 in 10.0 mi Calm Calm - N/A   Partly Cloudy
5:53 AM 75.0 °F - 70.0 °F 84% 30.12 in 7.0 mi Calm Calm - N/A   Partly Cloudy
6:53 AM 73.9 °F - 69.1 °F 85% 30.13 in 7.0 mi East 4.6 mph - N/A   Mostly Cloudy
7:53 AM 77.0 °F - 70.0 °F 79% 30.14 in 7.0 mi Calm Calm - N/A   Mostly Cloudy
8:53 AM 80.1 °F 83.6 °F 71.1 °F 74% 30.14 in 7.0 mi Calm Calm - N/A   Scattered Clouds
9:53 AM 82.9 °F 87.0 °F 70.0 °F 65% 30.14 in 7.0 mi Calm Calm - N/A   Scattered Clouds
10:53 AM 88.0 °F 93.8 °F 71.1 °F 57% 30.14 in 7.0 mi East 4.6 mph - N/A   Partly Cloudy
11:53 AM 89.1 °F 95.0 °F 71.1 °F 55% 30.13 in 7.0 mi SE 5.8 mph - N/A   Scattered Clouds
12:53 PM 90.0 °F 94.5 °F 69.1 °F 50% 30.12 in 10.0 mi SSE 3.5 mph - N/A   Mostly Cloudy
1:53 PM 90.0 °F 94.5 °F 69.1 °F 50% 30.10 in 10.0 mi ESE 6.9 mph - N/A   Mostly Cloudy
2:53 PM 93.0 °F 97.9 °F 69.1 °F 45% 30.07 in 7.0 mi Variable 3.5 mph - N/A   Mostly Cloudy
3:53 PM 95.0 °F 99.5 °F 68.0 °F 41% 30.06 in 10.0 mi ESE 11.5 mph - N/A   Mostly Cloudy
4:13 PM 87.8 °F 92.6 °F 69.8 °F 55% 30.07 in 9.0 mi ESE 11.5 mph - 0.00 in Rain Light Rain
4:15 PM 87.8 °F 92.6 °F 69.8 °F 55% 30.06 in 7.0 mi ESE 11.5 mph - 0.00 in Rain , Thunderstorm Light Thunderstorms and Rain
4:35 PM 86.0 °F 93.4 °F 73.4 °F 66% 30.06 in 7.0 mi ESE 5.8 mph - 0.02 in   Mostly Cloudy
4:53 PM 86.0 °F 93.0 °F 73.0 °F 65% 30.06 in 7.0 mi NE 5.8 mph - 0.02 in Thunderstorm Thunderstorm
5:12 PM 86.0 °F 93.4 °F 73.4 °F 66% 30.06 in 10.0 mi NE 9.2 mph - N/A   Mostly Cloudy
5:53 PM 82.9 °F 87.0 °F 70.0 °F 65% 30.07 in 10.0 mi NW 6.9 mph - N/A   Overcast
6:53 PM 82.9 °F 87.0 °F 70.0 °F 65% 30.06 in 10.0 mi Calm Calm - N/A   Mostly Cloudy
7:53 PM 80.1 °F 83.2 °F 70.0 °F 71% 30.06 in 10.0 mi NNE 4.6 mph - N/A   Mostly Cloudy
8:53 PM 79.0 °F - 71.1 °F 77% 30.08 in 10.0 mi NE 3.5 mph - N/A   Mostly Cloudy
9:53 PM 80.1 °F 83.6 °F 71.1 °F 74% 30.09 in 10.0 mi Calm Calm - N/A   Mostly Cloudy
10:53 PM 79.0 °F - 71.1 °F 77% 30.08 in 10.0 mi Calm Calm - N/A   Mostly Cloudy
11:53 PM 80.1 °F 83.2 °F 70.0 °F 71% 30.07 in 10.0 mi Calm Calm - N/A   Mostly Cloudy